User: anonymous   Login
Location: Aboncourt
(47.7710°N, 5.9826°E)
Time: 08:05:36
(UTC+00:00)
Language:

Cosmos 1408 - Orbit

View from above orbital plane
View from above orbital plane
View from above satellite
View from above satellite

Ground track
Ground track

The orbit data is extracted from the following two-line orbital elements,

1 13552U 82092A   20265.88751447 +.00000628 +00000-0 +21547-4 0  9995
2 13552 082.5704 182.0978 0018581 148.2880 211.9482 15.27955325078773
Epoch (UTC): 21 September 2020 21:18:01
Eccentricity: 0.0018581
inclination: 82.5704°
perigee height: 469 km
apogee height: 494 km
right ascension of ascending node: 182.0978°
argument of perigee: 148.2880°
revolutions per day: 15.27955325
mean anomaly at epoch: 211.9482°
orbit number at epoch: 7877

The dashed part of the orbit path shows where the satellite is in the earth's shadow,  

DLR